TimeCDT,TemperatureF,Dew PointF,Humidity,Sea Level PressureIn,VisibilityMPH,Wind Direction,Wind SpeedMPH,Gust SpeedMPH,PrecipitationIn,Events,Conditions,WindDirDegrees,DateUTC
12:53 AM,75.0,73.0,94,30.13,10.0,Calm,Calm,-,N/A,,Clear,0,2013-08-26 05:53:00
1:14 AM,75.2,73.4,94,30.13,10.0,Calm,Calm,-,N/A,,Mostly Cloudy,0,2013-08-26 06:14:00
1:30 AM,75.2,73.4,94,30.12,10.0,Calm,Calm,-,N/A,,Scattered Clouds,0,2013-08-26 06:30:00
1:38 AM,75.2,73.4,94,30.12,10.0,East,3.5,-,N/A,,Scattered Clouds,80,2013-08-26 06:38:00
1:53 AM,73.9,72.0,93,30.11,10.0,NE,4.6,-,N/A,,Scattered Clouds,40,2013-08-26 06:53:00
2:04 AM,73.4,73.4,100,30.11,10.0,NE,5.8,-,N/A,,Mostly Cloudy,50,2013-08-26 07:04:00
2:12 AM,75.2,73.4,94,30.11,10.0,ENE,4.6,-,N/A,,Partly Cloudy,60,2013-08-26 07:12:00
2:53 AM,75.0,73.0,94,30.11,10.0,Variable,5.8,-,N/A,,Mostly Cloudy,0,2013-08-26 07:53:00
3:53 AM,75.0,73.0,94,30.10,10.0,Variable,3.5,-,N/A,,Overcast,0,2013-08-26 08:53:00
4:46 AM,75.2,73.4,94,30.11,10.0,Variable,3.5,-,N/A,,Overcast,0,2013-08-26 09:46:00
4:53 AM,75.0,73.0,94,30.11,10.0,East,3.5,-,N/A,,Overcast,90,2013-08-26 09:53:00
5:15 AM,75.2,73.4,94,30.11,9.0,East,3.5,-,N/A,,Overcast,90,2013-08-26 10:15:00
5:49 AM,73.4,73.4,100,30.11,9.0,ENE,3.5,-,N/A,,Partly Cloudy,70,2013-08-26 10:49:00
5:53 AM,73.9,73.0,97,30.12,10.0,East,3.5,-,N/A,,Partly Cloudy,80,2013-08-26 10:53:00
6:28 AM,73.4,73.4,100,30.12,10.0,Calm,Calm,-,N/A,,Mostly Cloudy,0,2013-08-26 11:28:00
6:38 AM,73.4,73.4,100,30.13,10.0,ENE,3.5,-,N/A,,Scattered Clouds,70,2013-08-26 11:38:00
6:49 AM,73.4,73.4,100,30.13,10.0,ENE,3.5,-,N/A,,Mostly Cloudy,60,2013-08-26 11:49:00
6:53 AM,73.9,73.0,97,30.13,10.0,ENE,3.5,-,N/A,,Mostly Cloudy,60,2013-08-26 11:53:00
7:53 AM,75.0,73.0,94,30.15,10.0,ENE,8.1,-,N/A,,Overcast,60,2013-08-26 12:53:00
8:53 AM,77.0,73.0,88,30.15,10.0,East,5.8,-,N/A,,Overcast,80,2013-08-26 13:53:00
9:18 AM,77.0,73.4,89,30.16,10.0,East,4.6,-,N/A,,Overcast,90,2013-08-26 14:18:00
9:53 AM,79.0,73.0,82,30.17,10.0,Variable,4.6,-,N/A,,Overcast,0,2013-08-26 14:53:00
10:40 AM,82.4,73.4,74,30.18,10.0,Variable,4.6,-,N/A,,Mostly Cloudy,0,2013-08-26 15:40:00
10:53 AM,81.0,73.0,77,30.18,10.0,Variable,5.8,-,N/A,,Overcast,0,2013-08-26 15:53:00
11:44 AM,84.2,73.4,70,30.17,10.0,East,8.1,-,N/A,,Scattered Clouds,90,2013-08-26 16:44:00
11:53 AM,84.9,73.0,67,30.17,10.0,ESE,8.1,-,N/A,,Partly Cloudy,110,2013-08-26 16:53:00
12:27 PM,84.2,73.4,70,30.17,10.0,Variable,5.8,-,N/A,,Mostly Cloudy,0,2013-08-26 17:27:00
12:53 PM,84.9,72.0,65,30.16,10.0,Variable,6.9,-,N/A,,Scattered Clouds,0,2013-08-26 17:53:00
1:53 PM,87.1,72.0,61,30.15,10.0,Variable,3.5,-,N/A,,Partly Cloudy,0,2013-08-26 18:53:00
2:53 PM,88.0,72.0,59,30.12,10.0,Calm,Calm,-,N/A,,Scattered Clouds,0,2013-08-26 19:53:00
3:42 PM,80.6,73.4,79,30.12,10.0,South,12.7,24.2,N/A,,Mostly Cloudy,190,2013-08-26 20:42:00
3:53 PM,75.9,73.9,94,30.16,1.0,SE,6.9,21.9,0.37,Rain-Thunderstorm,Heavy Thunderstorms and Rain,140,2013-08-26 20:53:00
4:00 PM,75.2,73.4,94,30.15,0.2,South,9.2,16.1,0.47,Fog-Rain-Thunderstorm,Heavy Thunderstorms and Rain,180,2013-08-26 21:00:00
4:06 PM,75.2,73.4,94,30.15,0.5,South,11.5,-,0.67,Fog-Rain-Thunderstorm,Heavy Thunderstorms and Rain,180,2013-08-26 21:06:00
4:12 PM,73.4,73.4,100,30.14,0.8,South,6.9,-,0.86,Rain-Thunderstorm,Heavy Thunderstorms and Rain,190,2013-08-26 21:12:00
4:20 PM,75.2,73.4,94,30.13,2.0,South,3.5,-,0.90,Rain-Thunderstorm,Heavy Thunderstorms and Rain,190,2013-08-26 21:20:00
4:24 PM,75.2,73.4,94,30.14,4.0,SSW,3.5,-,0.91,Rain,Rain,210,2013-08-26 21:24:00
4:34 PM,75.2,73.4,94,30.13,10.0,SW,3.5,-,0.91,Rain,Light Rain,230,2013-08-26 21:34:00
4:53 PM,75.9,73.9,94,30.14,10.0,Calm,Calm,-,0.91,Rain,Light Rain,0,2013-08-26 21:53:00
5:53 PM,78.1,73.0,84,30.12,10.0,Calm,Calm,-,0.01,,Scattered Clouds,0,2013-08-26 22:53:00
6:53 PM,77.0,73.9,90,30.12,10.0,Calm,Calm,-,N/A,,Overcast,0,2013-08-26 23:53:00
7:53 PM,77.0,73.9,90,30.10,10.0,Calm,Calm,-,N/A,,Partly Cloudy,0,2013-08-27 00:53:00
8:53 PM,75.9,73.9,94,30.12,10.0,Calm,Calm,-,0.00,,Clear,0,2013-08-27 01:53:00
9:53 PM,75.9,73.9,94,30.12,10.0,NW,3.5,-,N/A,,Clear,310,2013-08-27 02:53:00
10:53 PM,75.0,73.9,96,30.12,10.0,Calm,Calm,-,N/A,,Clear,0,2013-08-27 03:53:00
11:53 PM,75.0,73.0,94,30.12,10.0,Calm,Calm,-,N/A,,Clear,0,2013-08-27 04:53:00